Stations météo

réclame
Mon MeteoGroup
L9F, Pays-Bas (6207): Température de l'air & dewpoint: 13.11.2019 02:00:00 - 19.11.2019 02:00:00 (CET)L9F, Pays-Bas (6207): Vitesse du vent & gusts: 13.11.2019 02:00:00 - 19.11.2019 02:00:00 (CET)L9F, Pays-Bas (6207): Direction du vent: 13.11.2019 02:00:00 - 19.11.2019 02:00:00 (CET)L9F, Pays-Bas (6207): reduced air pressure: 13.11.2019 02:00:00 - 19.11.2019 02:00:00 (CET)L9F, Pays-Bas (6207): visibility: 13.11.2019 02:00:00 - 19.11.2019 02:00:00 (CET)
Date & Time tt [°C] td [°C] ff [km/h] ff [knt] fx [km/h] fx [knt] dd ppp [hPa] vv [km]
19.11.2019 02:00:00 8,5 4,9 65 35 65 35 NW 1009,2 10
19.11.2019 01:00:00 8,6 5,8 55 30 58 31 NNW 1008,8 10
19.11.2019 00:00:00 8,9 6,4 55 30 61 33 NNW 1008,5 10
18.11.2019 23:00:00 9,4 6,3 59 32 65 35 NW 1008,0 5
18.11.2019 22:00:00 9,5 5,8 61 33 61 33 NW 1007,8 10
18.11.2019 21:00:00 9,3 5,3 61 33 65 35 NNW 1007,9 10
18.11.2019 20:00:00 9,3 4,6 61 33 65 35 NW 1007,9 10
18.11.2019 19:00:00 9,6 5,2 65 35 65 35 NNW 1008,0 10
18.11.2019 18:00:00 9,5 5,7 63 34 65 35 NNW 1008,0 10
18.11.2019 17:00:00 9,6 5,6 65 35 61 33 NNW 1008,1 10
18.11.2019 16:00:00 9,3 7,5 41 22 58 31 NNW 1007,7 6
18.11.2019 15:00:00 9,2 6,6 44 24 43 23 NW 1008,1 10
18.11.2019 14:00:00 9,9 5,7 42 23 43 23 NNW 1007,9 10
18.11.2019 13:00:00 9,9 5,2 37 20 40 21 N 1008,2 10
18.11.2019 12:00:00 9,7 5,6 34 18 36 19 N 1008,7 10
18.11.2019 11:00:00 9,3 5,4 34 18 36 19 N 1009,3 10
18.11.2019 10:00:00 8,9 5,6 35 19 36 19 NNE 1009,8 10
18.11.2019 09:00:00 8,9 4,8 37 20 40 21 N 1009,6 10
18.11.2019 08:00:00 8,7 4,8 35 19 40 21 NE 1009,6 10
18.11.2019 07:00:00 7,9 4,9 35 19 40 21 NE 1009,6 10
18.11.2019 06:00:00 8,3 5,5 37 20 40 21 NE 1009,7 10
18.11.2019 05:00:00 8,1 5,1 37 20 40 21 ENE 1009,8 10
18.11.2019 04:00:00 10,2 6,9 28 15 32 18 ENE 1010,1 8
18.11.2019 03:00:00 9,4 5,9 29 16 32 18 ENE 1010,2 7
18.11.2019 02:00:00 9,7 5,6 29 16 32 18 NNE 1010,2 10
18.11.2019 01:00:00 9,5 5,2 28 15 29 16 NE 1010,7 10
18.11.2019 00:00:00 9,5 4,6 24 13 29 16 NE 1011,2 10
17.11.2019 23:00:00 9,0 4,8 15 8 18 10 N 1012,0 10
17.11.2019 22:00:00 8,7 4,3 9 5 14 8 NE 1012,5 10
17.11.2019 21:00:00 10,4 5,3 9 5 11 6 E 1013,2 10
17.11.2019 20:00:00 9,2 5,0 4 2 7 4 - 1013,4 10
17.11.2019 19:00:00 8,1 3,7 5 3 11 6 SSE 1013,3 10
17.11.2019 18:00:00 7,8 4,7 9 5 14 8 SE 1013,3 10
17.11.2019 17:00:00 8,1 5,5 13 7 14 8 SSE 1013,2 10
17.11.2019 16:00:00 8,6 5,9 11 6 14 8 SSW 1012,9 10
17.11.2019 15:00:00 8,3 6,0 18 10 18 10 S 1012,8 10
17.11.2019 14:00:00 8,1 6,0 18 10 25 14 S 1013,0 10
17.11.2019 13:00:00 8,4 6,1 24 13 32 18 S 1012,9 10
17.11.2019 12:00:00 8,0 6,1 35 19 40 21 S 1013,0 10
17.11.2019 11:00:00 7,8 5,8 41 22 40 21 S 1013,0 10
17.11.2019 10:00:00 9,6 6,0 29 16 36 19 SW 1012,6 10
17.11.2019 09:00:00 9,4 6,2 37 20 40 21 SW 1012,0 10
17.11.2019 08:00:00 8,9 6,3 46 25 47 25 SSW 1011,7 10
17.11.2019 07:00:00 8,3 6,1 44 24 47 25 SSW 1010,9 10
17.11.2019 06:00:00 8,2 6,4 46 25 47 25 SSW 1010,6 10
17.11.2019 05:00:00 9,0 6,7 35 19 47 25 SSW 1010,2 10
17.11.2019 04:00:00 9,8 5,4 29 16 32 18 WSW 1009,5 10
17.11.2019 03:00:00 9,9 5,5 28 15 29 16 WSW 1009,4 10
17.11.2019 02:00:00 9,3 6,4 18 10 61 33 SW 1009,1 10
17.11.2019 01:00:00 8,9 7,0 50 27 54 29 SSW 1009,0 10
17.11.2019 00:00:00 8,7 6,7 54 29 54 29 SSW 1008,9 10
16.11.2019 23:00:00 8,1 5,8 55 30 58 31 SSW 1008,8 10
16.11.2019 22:00:00 9,8 5,2 48 26 50 27 SW 1008,2 10
16.11.2019 21:00:00 9,9 5,4 48 26 47 25 SW 1007,7 10
16.11.2019 20:00:00 9,9 5,0 48 26 54 29 SW 1007,2 10
16.11.2019 19:00:00 9,9 5,1 48 26 50 27 SW 1006,6 10
16.11.2019 18:00:00 9,9 5,3 44 24 50 27 SW 1006,2 10
16.11.2019 17:00:00 10,0 4,8 37 20 40 21 WSW 1006,0 10
16.11.2019 16:00:00 10,0 5,0 37 20 40 21 WSW 1005,7 10
16.11.2019 15:00:00 9,9 5,1 35 19 36 19 WSW 1005,4 10
16.11.2019 14:00:00 9,8 4,5 34 18 36 19 W 1005,4 10
16.11.2019 13:00:00 9,9 3,9 34 18 32 18 W 1005,3 10
16.11.2019 12:00:00 9,8 3,8 29 16 32 18 W 1005,5 10
16.11.2019 11:00:00 9,6 4,0 24 13 29 16 W 1005,6 10
16.11.2019 10:00:00 9,3 3,5 18 10 22 12 WSW 1005,6 10
16.11.2019 09:00:00 8,9 3,8 13 7 22 12 W 1006,0 10
16.11.2019 08:00:00 8,5 4,2 8 4 25 14 - 1005,5 10
16.11.2019 07:00:00 8,3 4,0 11 6 25 14 - 1005,4 10
16.11.2019 06:00:00 8,0 3,9 15 8 22 12 W 1005,3 10
16.11.2019 05:00:00 7,9 4,0 8 4 25 14 - 1005,7 10
16.11.2019 04:00:00 10,1 4,5 11 6 14 8 SSW 1005,6 10
16.11.2019 03:00:00 8,0 4,0 9 5 18 10 SSW 1005,7 9
16.11.2019 02:00:00 9,3 4,5 16 9 18 10 S 1006,2 8
16.11.2019 01:00:00 8,8 5,4 16 9 18 10 SSE 1005,7 9
16.11.2019 00:00:00 8,1 4,7 18 10 22 12 S 1005,8 9
15.11.2019 23:00:00 7,4 3,7 13 7 22 12 SE 1005,9 10
15.11.2019 22:00:00 7,3 3,9 22 12 25 14 SE 1005,9 10
15.11.2019 21:00:00 7,3 4,5 24 13 29 16 SE 1005,7 10
15.11.2019 20:00:00 7,0 4,2 29 16 36 19 ESE 1005,4 10
15.11.2019 19:00:00 7,2 4,1 37 20 36 19 SE 1005,3 10
15.11.2019 18:00:00 7,0 4,1 34 18 40 21 ESE 1004,5 10
15.11.2019 17:00:00 7,2 4,0 42 23 50 27 ESE 1004,3 10
15.11.2019 16:00:00 7,0 4,1 50 27 54 29 E 1003,2 10
15.11.2019 15:00:00 6,9 3,0 41 22 50 27 E 1004,6 10
15.11.2019 14:00:00 7,2 3,0 48 26 54 29 E 1004,4 10
15.11.2019 13:00:00 7,4 3,4 50 27 54 29 E 1004,5 10
15.11.2019 12:00:00 6,6 3,4 52 28 65 35 E 1005,4 10
15.11.2019 11:00:00 7,0 4,0 57 31 61 33 E 1005,9 10
15.11.2019 10:00:00 7,0 4,1 55 30 68 37 E 1005,6 10
15.11.2019 09:00:00 7,2 3,9 57 31 65 35 E 1005,8 10
15.11.2019 08:00:00 8,8 4,2 61 33 65 35 E 1005,9 10
15.11.2019 07:00:00 9,2 4,0 59 32 61 33 ENE 1005,1 10
15.11.2019 06:00:00 9,4 4,1 57 31 58 31 E 1005,9 10
15.11.2019 05:00:00 8,8 4,9 46 25 50 27 E 1006,4 10
15.11.2019 04:00:00 7,9 4,0 46 25 50 27 E 1006,5 10
15.11.2019 03:00:00 8,4 5,2 50 27 50 27 E 1006,6 10
15.11.2019 02:00:00 8,0 4,8 37 20 40 21 E 1006,9 10
15.11.2019 01:00:00 8,1 4,9 28 15 32 18 E 1007,0 10
15.11.2019 00:00:00 7,9 4,7 26 14 29 16 ESE 1007,3 10
14.11.2019 23:00:00 8,2 4,9 29 16 32 18 SE 1007,3 10
14.11.2019 22:00:00 8,0 4,6 35 19 36 19 SE 1007,2 10
14.11.2019 21:00:00 7,9 4,6 34 18 32 18 SE 1006,9 10
14.11.2019 20:00:00 7,8 4,8 35 19 36 19 SE 1006,8 10
14.11.2019 19:00:00 7,5 4,5 37 20 36 19 SE 1006,2 10
14.11.2019 18:00:00 7,7 4,6 35 19 36 19 SE 1005,8 10
14.11.2019 17:00:00 7,7 4,2 37 20 36 19 SE 1005,4 10
14.11.2019 16:00:00 7,7 4,4 34 18 36 19 SE 1004,0 10
14.11.2019 15:00:00 7,7 4,4 31 17 32 18 SE 1004,1 10
14.11.2019 14:00:00 7,6 4,4 31 17 32 18 SE 1003,9 10
14.11.2019 13:00:00 7,3 4,3 29 16 32 18 SE 1003,9 10
14.11.2019 12:00:00 7,0 4,3 35 19 36 19 SE 1003,4 10
14.11.2019 11:00:00 7,2 4,8 34 18 32 18 SE 1003,1 10
14.11.2019 10:00:00 7,1 5,2 31 17 36 19 SSE 1002,7 10
14.11.2019 09:00:00 7,1 5,5 31 17 32 18 SE 1002,1 10
14.11.2019 08:00:00 6,9 5,5 28 15 29 16 SE 1001,3 10
14.11.2019 07:00:00 6,8 5,5 26 14 36 19 SSE 1000,9 10
14.11.2019 06:00:00 6,7 5,6 28 15 32 18 SSE 1000,5 10
14.11.2019 05:00:00 6,9 5,4 29 16 32 18 S 1000,0 10
14.11.2019 04:00:00 7,3 5,9 31 17 36 19 S 999,7 10
14.11.2019 03:00:00 7,6 5,6 34 18 36 19 S 999,8 10
14.11.2019 02:00:00 7,4 5,4 31 17 36 19 S 999,5 10
14.11.2019 01:00:00 8,0 4,9 28 15 32 18 - 999,4 10
14.11.2019 00:00:00 7,9 4,0 16 9 25 14 SSW 999,5 10
13.11.2019 23:00:00 7,8 3,5 37 20 43 23 SSW 999,5 10
13.11.2019 22:00:00 8,0 4,6 37 20 36 19 S 999,5 10
13.11.2019 21:00:00 7,2 3,8 48 26 50 27 SSW 999,2 10
13.11.2019 20:00:00 8,8 3,2 15 8 25 14 W 999,0 10
13.11.2019 19:00:00 8,9 3,1 16 9 40 21 W 998,8 10
13.11.2019 18:00:00 8,3 3,3 24 13 29 16 W 998,6 10
13.11.2019 17:00:00 9,0 4,1 8 4 32 18 - 998,3 10
13.11.2019 16:00:00 8,9 3,9 29 16 36 19 W 997,8 10
13.11.2019 15:00:00 7,6 3,5 22 12 43 23 W 997,5 10
13.11.2019 14:00:00 9,0 3,5 48 26 54 29 - 996,9 10
13.11.2019 13:00:00 9,5 4,8 41 22 54 29 W 996,2 10
13.11.2019 12:00:00 9,0 5,2 37 20 50 27 W 996,1 10
13.11.2019 11:00:00 9,5 5,0 48 26 47 25 - 995,7 10
13.11.2019 10:00:00 9,9 5,1 37 20 47 25 W 995,4 10
13.11.2019 09:00:00 10,0 4,7 44 24 58 31 - 994,7 10
13.11.2019 08:00:00 10,1 5,2 41 22 58 31 - 993,7 10
13.11.2019 07:00:00 9,6 5,9 46 25 50 27 WNW 993,1 10
13.11.2019 06:00:00 9,6 4,7 46 25 54 29 WNW 992,1 6
13.11.2019 05:00:00 9,2 5,8 44 24 58 31 W 991,7 10
13.11.2019 04:00:00 8,7 4,7 63 34 68 37 WNW 990,7 10
13.11.2019 03:00:00 9,9 6,5 11 6 54 29 - 989,5 10
13.11.2019 02:00:00 7,9 7,1 61 33 72 39 S 990,1 8

tt = Température de l'air
td = dewpoint
ff = Vitesse du vent
fx = gusts
dd = Direction du vent
ppp = reduced air pressure
vv = visibility

stations d'obs. à proximité